weather station
Area: 7197 km2
The highest point: Čupec (819 m.s.l.)
Total stations: 35
Stations online: 33
Stations offline: 2
Current weather
6°C

Meteorological map - weather stations in Jihomoravský

. The meteorological maps show weather information from WARIO weather stations

Weather stations Jihomoravský

 UpdatesNameStatusTemperatureHumidityWind speedWind direction
12.11.2019 00:36Adamov3.7 °C100.0 %9.9 m/s SE
12.11.2019 00:37Archlebov5.7 °C88.1 %4.4 m/s S
12.11.2019 00:36Boskovice5.1 °C81.1 %2.8 m/s S
12.11.2019 00:37Brno - Líšeň5.0 °C100.0 %3.5 m/s E
12.11.2019 00:37Brno - Vinohrady5.3 °C92.4 %4.2 m/s SE
12.11.2019 00:37Brno - Kníničky5.9 °C94.6 %2.2 m/s SW
12.11.2019 00:37Býkovice4.5 °C92.5 %4.5 m/s N
12.11.2019 00:37Diváky5.6 °C87.7 %2.1 m/s W
12.11.2019 00:37Dobšice7.2 °C88.0 %4.2 m/s NW
12.11.2019 00:37Drnholec6.5 °C99.1 %6.2 m/s SW
12.11.2019 00:37Lelekovice5.0 °C100.0 %4.6 m/s NE
12.11.2019 00:37Holubice5.8 °C86.0 %5.6 m/s SE
12.11.2019 00:33Brno - Maloměřice6.6 °C89.7 %1.6 m/s SW
12.11.2019 00:36Moravany5.3 °C85.4 %2.2 m/s NE
12.11.2019 00:37Brno - Královo Pole5.4 °C86.2 %4.0 m/s E
12.11.2019 00:37Brno - Štýřice5.8 °C %2.4 m/s W
12.11.2019 00:37Lomnice6.3 °C93.8 %2.8 m/s N
12.11.2019 00:37Dolní Dubňany5.5 °C91.1 %5.6 m/s NE
12.11.2019 00:37Bzenec8.2 °C89.2 %2.9 m/s SE
12.11.2019 00:36Svatobořice6.2 °C96.1 %1.8 m/s N
12.11.2019 00:37Moravské Bránice5.9 °C92.8 %4.8 m/s SW
12.11.2019 00:37Pohořelice6.6 °C100.0 %5.7 m/s NE
12.11.2019 00:37Předklášteří5.7 °C95.9 %1.5 m/s SE
12.11.2019 00:37Brno - Přízřenice6.1 °C89.5 %4.1 m/s NW
12.11.2019 00:37Senorady5.4 °C97.1 %1.7 m/s E
12.11.2019 00:37Skalice u Znojma7.4 °C100.0 %0.0 m/s E
12.11.2019 00:37Šlapanice5.7 °C90.3 %2.2 m/s E
10.11.2019 07:34Brno - Trnitá °C %0.0 m/s W
12.11.2019 00:37Kuřim5.3 °C97.7 %2.3 m/s E
11.11.2019 21:58Strážnice8.5 °C83.6 %0.0 m/s SE
12.11.2019 00:37Strážnice GUMEX6.5 °C90.9 %0.0 m/s SW
12.11.2019 00:37Velatice5.5 °C98.5 %1.7 m/s S
12.11.2019 00:37Veselí nad Moravou6.9 °C92.9 %0.0 m/s W
12.11.2019 00:37Rájec-Jestřebí5.2 °C96.9 %0.9 m/s N
12.11.2019 00:37Brno - Královo Pole6.0 °C87.6 %1.5 m/s W
Email notifications
Enter your email address to subscribe to notifications about news at warioweather.com. Your email address will not be used for any purpose other than sending these emails and will not be provided to any third party. The subscription can be ended at any time.
All data are only indicative. The portal administrator has no responsibility for potentially incorrect data and related consequences. Publishing or further sharing of content from www.warioweather.com is only allowed with written consent from WANET s.r.o.